User: anonymous   Login
Location: Kapla
(46.2483°N, 15.0094°E)
Time: 02:54:12
(UTC+00:00)
Language:

CZ-2D R/B - Orbit

View from above orbital plane
View from above orbital plane
View from above satellite
View from above satellite

Ground track
Ground track

The orbit data is extracted from the following two-line orbital elements,

1 28738U 05024B   21137.61193056  .00000440  00000-0  28881-4 0  9993
2 28738  97.3624 154.7372 0013490 106.4789 253.7925 15.12387347871923
Epoch (UTC): 17 May 2021 14:41:10
Eccentricity: 0.0013490
inclination: 97.3624°
perigee height: 519 km
apogee height: 538 km
right ascension of ascending node: 154.7372°
argument of perigee: 106.4789°
revolutions per day: 15.12387347
mean anomaly at epoch: 253.7925°
orbit number at epoch: 87192

The dashed part of the orbit path shows where the satellite is in the earth's shadow,  

DLR